KINEIS-3E

Last updated on Sun Jun 21 2026 00:03:01 GMT+0000 (Coordinated Universal Time)

1 61222U 24172C 26171.24275924 .00001370 00000+0 22478-3 0 9997 2 61222 98.0427 261.1029 0001891 108.8158 251.3255 14.72256910 93806
UTC large
Height (km)
Speed (km/s)
/
Latitude / Longitude
Inclination (degrees)
Orbital Period (minutes)
Azimuth
Elevation
Range (km)
Doppler Factor

Next 0 passes for location: London (51.5072 / 0.1276)

No passes found over London.
KINEIS-3E